User: anonymous   Login
Location: Palmerston North
(40.3500°S, 175.6170°E)
Time: 22:29:43
(UTC+13:00)
Language:

Cosmos 2278 Rocket - Orbit

View from above orbital plane
View from above orbital plane
View from above satellite
View from above satellite

Ground track
Ground track

The orbit data is extracted from the following two-line orbital elements,

1 23088U 94023B   19293.00348543 -.00000113  00000-0 -33737-4 0  9994
2 23088  70.9993 287.9028 0005732 255.6163 104.4324 14.14686004316430
Epoch (UTC): 20 October 2019 00:05:01
Eccentricity: 0.0005732
inclination: 70.9993°
perigee height: 839 km
apogee height: 847 km
right ascension of ascending node: 287.9028°
argument of perigee: 255.6163°
revolutions per day: 14.14686004
mean anomaly at epoch: 104.4324°
orbit number at epoch: 31643

The dashed part of the orbit path shows where the satellite is in the earth's shadow,  

DLR